Wetterdaten: Woche 11.10.21 - 17.10.21 (KW41)
Datum Zeit Temp. 2m rel. Feuchte Luftdruck Regen Wind Richtung Sonne ET UV-Index Solar Taupunkt Ben
11.10.2021 00:00 9,7 C 86 % 1026,4 hPa 0,0 mm 2,7 km/h (1 Bft) O 0,00 h 0,0 mm 0,0 UV-I 0 W/m 7,5 C 5,2 km/h (1 Bft)
11.10.2021 01:00 9,5 C 88 % 1026,0 hPa 0,0 mm 0,6 km/h (0 Bft) O 0,00 h 0,0 mm 0,0 UV-I 0 W/m 7,6 C 2,4 km/h (1 Bft)
11.10.2021 02:00 9,3 C 88 % 1025,9 hPa 0,0 mm 0,1 km/h (0 Bft) N 0,00 h 0,0 mm 0,0 UV-I 0 W/m 7,4 C 1,1 km/h (1 Bft)
11.10.2021 03:00 9,0 C 89 % 1025,8 hPa 0,0 mm 0,0 km/h (0 Bft) N 0,00 h 0,0 mm 0,0 UV-I 0 W/m 7,3 C 0,0 km/h (0 Bft)
11.10.2021 04:00 9,6 C 90 % 1025,6 hPa 0,0 mm 0,0 km/h (0 Bft) N 0,00 h 0,0 mm 0,0 UV-I 0 W/m 8,1 C 0,0 km/h (0 Bft)
11.10.2021 05:00 10,3 C 91 % 1025,4 hPa 0,0 mm 0,8 km/h (0 Bft) O 0,00 h 0,0 mm 0,0 UV-I 0 W/m 8,8 C 3,0 km/h (1 Bft)
11.10.2021 06:00 10,5 C 91 % 1025,4 hPa 0,0 mm 0,0 km/h (0 Bft) N 0,00 h 0,0 mm 0,0 UV-I 0 W/m 9,1 C 0,0 km/h (0 Bft)
11.10.2021 07:00 10,7 C 91 % 1025,7 hPa 0,0 mm 0,0 km/h (0 Bft) N 0,00 h 0,0 mm 0,0 UV-I 0 W/m 9,3 C 0,0 km/h (0 Bft)
11.10.2021 08:00 11,1 C 91 % 1025,9 hPa 0,3 mm 0,0 km/h (0 Bft) N 0,00 h 0,0 mm 0,0 UV-I 19 W/m 9,8 C 0,0 km/h (0 Bft)
11.10.2021 09:00 11,5 C 93 % 1026,3 hPa 0,0 mm 0,0 km/h (0 Bft) N 0,33 h 0,0 mm 0,0 UV-I 113 W/m 10,3 C 0,9 km/h (0 Bft)
11.10.2021 10:00 11,9 C 90 % 1026,8 hPa 0,0 mm 0,3 km/h (0 Bft) N 0,67 h 0,1 mm 0,5 UV-I 226 W/m 10,3 C 2,8 km/h (1 Bft)
11.10.2021 11:00 13,1 C 81 % 1026,9 hPa 0,0 mm 0,3 km/h (0 Bft) O 0,58 h 0,1 mm 0,6 UV-I 264 W/m 10,0 C 3,3 km/h (1 Bft)
11.10.2021 12:00 13,9 C 77 % 1026,7 hPa 0,0 mm 1,0 km/h (0 Bft) O 0,58 h 0,1 mm 0,7 UV-I 280 W/m 9,9 C 5,0 km/h (1 Bft)
11.10.2021 13:00 14,3 C 75 % 1026,7 hPa 0,0 mm 2,0 km/h (1 Bft) O 0,25 h 0,1 mm 0,8 UV-I 265 W/m 9,9 C 8,1 km/h (2 Bft)
11.10.2021 14:00 14,8 C 73 % 1026,3 hPa 0,0 mm 3,4 km/h (1 Bft) O 0,83 h 0,1 mm 1,0 UV-I 325 W/m 10,0 C 11,5 km/h (2 Bft)
11.10.2021 15:00 15,0 C 72 % 1026,1 hPa 0,0 mm 4,8 km/h (1 Bft) O 0,42 h 0,2 mm 0,6 UV-I 225 W/m 10,0 C 15,0 km/h (3 Bft)
11.10.2021 16:00 14,8 C 72 % 1025,8 hPa 0,0 mm 4,2 km/h (1 Bft) O 1,00 h 0,1 mm 0,3 UV-I 274 W/m 9,9 C 12,2 km/h (2 Bft)
11.10.2021 17:00 14,1 C 77 % 1025,6 hPa 0,0 mm 5,9 km/h (2 Bft) O 0,08 h 0,1 mm 0,0 UV-I 81 W/m 10,2 C 13,5 km/h (3 Bft)
11.10.2021 18:00 13,2 C 80 % 1025,5 hPa 0,0 mm 4,1 km/h (1 Bft) O 0,08 h 0,1 mm 0,0 UV-I 22 W/m 9,9 C 9,4 km/h (2 Bft)
11.10.2021 19:00 12,6 C 82 % 1025,7 hPa 0,0 mm 1,7 km/h (1 Bft) O 0,00 h 0,0 mm 0,0 UV-I 0 W/m 9,5 C 4,6 km/h (1 Bft)
11.10.2021 20:00 12,3 C 83 % 1025,7 hPa 0,0 mm 0,3 km/h (0 Bft) O 0,00 h 0,0 mm 0,0 UV-I 0 W/m 9,4 C 2,6 km/h (1 Bft)
11.10.2021 21:00 11,4 C 84 % 1025,6 hPa 0,0 mm 0,5 km/h (0 Bft) O 0,00 h 0,0 mm 0,0 UV-I 0 W/m 8,8 C 4,4 km/h (1 Bft)
11.10.2021 22:00 10,7 C 86 % 1025,6 hPa 0,0 mm 0,9 km/h (0 Bft) O 0,00 h 0,0 mm 0,0 UV-I 0 W/m 8,4 C 4,8 km/h (1 Bft)
11.10.2021 23:00 10,3 C 86 % 1025,6 hPa 0,0 mm 2,5 km/h (1 Bft) O 0,00 h 0,0 mm 0,0 UV-I 0 W/m 8,1 C 5,9 km/h (2 Bft)
12.10.2021 00:00 10,4 C 87 % 1025,3 hPa 0,0 mm 2,0 km/h (1 Bft) O 0,00 h 0,0 mm 0,0 UV-I 0 W/m 8,3 C 5,2 km/h (1 Bft)
12.10.2021 01:00 10,4 C 87 % 1025,0 hPa 0,0 mm 4,8 km/h (1 Bft) O 0,00 h 0,0 mm 0,0 UV-I 0 W/m 8,4 C 9,8 km/h (2 Bft)
12.10.2021 02:00 10,3 C 88 % 1024,5 hPa 0,3 mm 3,2 km/h (1 Bft) O 0,00 h 0,0 mm 0,0 UV-I 0 W/m 8,5 C 7,4 km/h (2 Bft)
12.10.2021 03:00 10,2 C 89 % 1023,9 hPa 0,8 mm 3,5 km/h (1 Bft) O 0,00 h 0,0 mm 0,0 UV-I 0 W/m 8,5 C 9,1 km/h (2 Bft)
12.10.2021 04:00 10,1 C 90 % 1023,4 hPa 0,8 mm 1,6 km/h (1 Bft) O 0,00 h 0,0 mm 0,0 UV-I 0 W/m 8,5 C 6,5 km/h (2 Bft)
12.10.2021 05:00 9,9 C 91 % 1022,5 hPa 0,0 mm 2,9 km/h (1 Bft) O 0,00 h 0,0 mm 0,0 UV-I 0 W/m 8,4 C 6,7 km/h (2 Bft)
12.10.2021 06:00 9,8 C 91 % 1022,0 hPa 0,0 mm 5,4 km/h (1 Bft) O 0,00 h 0,0 mm 0,0 UV-I 0 W/m 8,4 C 11,2 km/h (2 Bft)
12.10.2021 07:00 9,8 C 91 % 1021,4 hPa 0,0 mm 7,8 km/h (2 Bft) O 0,00 h 0,0 mm 0,0 UV-I 0 W/m 8,4 C 15,3 km/h (3 Bft)
12.10.2021 08:00 9,8 C 90 % 1021,1 hPa 0,0 mm 8,7 km/h (2 Bft) O 0,00 h 0,0 mm 0,0 UV-I 14 W/m 8,3 C 17,1 km/h (3 Bft)
12.10.2021 09:00 9,9 C 90 % 1020,7 hPa 0,3 mm 7,4 km/h (2 Bft) O 0,00 h 0,0 mm 0,0 UV-I 29 W/m 8,4 C 16,1 km/h (3 Bft)
12.10.2021 10:00 10,3 C 91 % 1020,2 hPa 0,5 mm 12,6 km/h (3 Bft) O 0,00 h 0,0 mm 0,3 UV-I 61 W/m 8,8 C 25,0 km/h (4 Bft)
12.10.2021 11:00 10,5 C 91 % 1019,7 hPa 2,3 mm 12,9 km/h (3 Bft) O 0,00 h 0,0 mm 0,4 UV-I 84 W/m 9,1 C 24,2 km/h (4 Bft)
12.10.2021 12:00 11,0 C 92 % 1019,2 hPa 0,0 mm 6,3 km/h (2 Bft) O 0,00 h 0,1 mm 0,9 UV-I 149 W/m 9,7 C 19,2 km/h (3 Bft)
12.10.2021 13:00 11,6 C 92 % 1018,6 hPa 0,5 mm 4,4 km/h (1 Bft) O 0,00 h 0,1 mm 0,7 UV-I 111 W/m 10,3 C 14,8 km/h (3 Bft)
12.10.2021 14:00 12,0 C 92 % 1018,1 hPa 0,3 mm 5,2 km/h (1 Bft) O 0,00 h 0,1 mm 1,0 UV-I 167 W/m 10,7 C 15,6 km/h (3 Bft)
12.10.2021 15:00 12,5 C 91 % 1017,5 hPa 0,0 mm 5,1 km/h (1 Bft) O 0,25 h 0,1 mm 0,9 UV-I 220 W/m 11,0 C 16,8 km/h (3 Bft)
12.10.2021 16:00 12,3 C 90 % 1017,7 hPa 0,5 mm 2,6 km/h (1 Bft) O 0,00 h 0,1 mm 0,5 UV-I 105 W/m 10,6 C 8,1 km/h (2 Bft)
12.10.2021 17:00 11,7 C 90 % 1018,0 hPa 0,0 mm 0,0 km/h (0 Bft) N 0,50 h 0,1 mm 0,1 UV-I 112 W/m 10,1 C 0,6 km/h (0 Bft)
12.10.2021 18:00 10,3 C 89 % 1018,7 hPa 0,0 mm 0,3 km/h (0 Bft) O 0,17 h 0,1 mm 0,0 UV-I 15 W/m 8,5 C 1,5 km/h (1 Bft)
12.10.2021 19:00 9,3 C 89 % 1019,5 hPa 0,0 mm 0,0 km/h (0 Bft) N 0,00 h 0,0 mm 0,0 UV-I 0 W/m 7,6 C 0,0 km/h (0 Bft)
12.10.2021 20:00 8,5 C 90 % 1020,3 hPa 0,0 mm 0,0 km/h (0 Bft) N 0,00 h 0,0 mm 0,0 UV-I 0 W/m 6,9 C 0,4 km/h (0 Bft)
12.10.2021 21:00 7,8 C 90 % 1020,9 hPa 0,0 mm 0,0 km/h (0 Bft) N 0,00 h 0,0 mm 0,0 UV-I 0 W/m 6,3 C 0,6 km/h (0 Bft)
12.10.2021 22:00 7,3 C 91 % 1021,3 hPa 0,0 mm 0,0 km/h (0 Bft) N 0,00 h 0,0 mm 0,0 UV-I 0 W/m 5,8 C 0,0 km/h (0 Bft)
12.10.2021 23:00 6,7 C 91 % 1021,7 hPa 0,0 mm 0,0 km/h (0 Bft) N 0,00 h 0,0 mm 0,0 UV-I 0 W/m 5,3 C 0,6 km/h (0 Bft)
13.10.2021 00:00 6,5 C 91 % 1022,0 hPa 0,0 mm 0,1 km/h (0 Bft) N 0,00 h 0,0 mm 0,0 UV-I 0 W/m 5,1 C 1,8 km/h (1 Bft)
13.10.2021 01:00 6,2 C 91 % 1022,2 hPa 0,0 mm 0,6 km/h (0 Bft) O 0,00 h 0,0 mm 0,0 UV-I 0 W/m 4,9 C 4,3 km/h (1 Bft)
13.10.2021 02:00 5,9 C 91 % 1022,5 hPa 0,0 mm 0,9 km/h (0 Bft) O 0,00 h 0,0 mm 0,0 UV-I 0 W/m 4,6 C 4,8 km/h (1 Bft)
13.10.2021 03:00 5,8 C 91 % 1022,6 hPa 0,0 mm 0,9 km/h (0 Bft) O 0,00 h 0,0 mm 0,0 UV-I 0 W/m 4,4 C 3,9 km/h (1 Bft)
13.10.2021 04:00 5,9 C 91 % 1022,9 hPa 0,0 mm 1,9 km/h (1 Bft) O 0,00 h 0,0 mm 0,0 UV-I 0 W/m 4,6 C 6,3 km/h (2 Bft)
13.10.2021 05:00 6,2 C 92 % 1023,4 hPa 0,0 mm 1,0 km/h (0 Bft) O 0,00 h 0,0 mm 0,0 UV-I 0 W/m 4,9 C 4,8 km/h (1 Bft)
13.10.2021 06:00 6,2 C 92 % 1023,8 hPa 0,0 mm 1,2 km/h (1 Bft) O 0,00 h 0,0 mm 0,0 UV-I 0 W/m 5,0 C 4,6 km/h (1 Bft)
13.10.2021 07:00 6,5 C 93 % 1024,0 hPa 0,0 mm 0,2 km/h (0 Bft) N 0,00 h 0,0 mm 0,0 UV-I 2 W/m 5,4 C 1,3 km/h (1 Bft)
13.10.2021 08:00 6,5 C 93 % 1024,6 hPa 0,0 mm 0,1 km/h (0 Bft) N 0,33 h 0,0 mm 0,2 UV-I 42 W/m 5,4 C 0,9 km/h (0 Bft)
13.10.2021 09:00 7,5 C 93 % 1025,0 hPa 0,0 mm 2,3 km/h (1 Bft) O 0,17 h 0,0 mm 0,8 UV-I 98 W/m 6,4 C 7,6 km/h (2 Bft)
13.10.2021 10:00 8,7 C 92 % 1025,4 hPa 0,0 mm 3,0 km/h (1 Bft) O 0,25 h 0,1 mm 1,3 UV-I 181 W/m 7,4 C 8,3 km/h (2 Bft)
13.10.2021 11:00 9,9 C 89 % 1025,6 hPa 0,0 mm 5,0 km/h (1 Bft) O 0,92 h 0,1 mm 2,1 UV-I 377 W/m 8,2 C 11,3 km/h (2 Bft)
13.10.2021 12:00 11,7 C 85 % 1025,7 hPa 0,0 mm 4,0 km/h (1 Bft) O 1,00 h 0,2 mm 2,3 UV-I 540 W/m 9,2 C 11,7 km/h (2 Bft)
13.10.2021 13:00 12,4 C 81 % 1025,8 hPa 0,0 mm 3,7 km/h (1 Bft) O 0,33 h 0,2 mm 1,1 UV-I 247 W/m 9,1 C 10,4 km/h (2 Bft)
13.10.2021 14:00 12,9 C 79 % 1025,7 hPa 0,0 mm 4,8 km/h (1 Bft) O 0,67 h 0,1 mm 1,9 UV-I 428 W/m 9,3 C 14,2 km/h (3 Bft)
13.10.2021 15:00 13,6 C 74 % 1025,6 hPa 0,0 mm 5,4 km/h (1 Bft) O 0,50 h 0,2 mm 0,9 UV-I 263 W/m 9,1 C 15,7 km/h (3 Bft)
13.10.2021 16:00 12,8 C 77 % 1025,5 hPa 0,0 mm 3,3 km/h (1 Bft) O 0,00 h 0,1 mm 0,4 UV-I 115 W/m 8,8 C 10,9 km/h (2 Bft)
13.10.2021 17:00 12,7 C 78 % 1025,8 hPa 0,0 mm 2,1 km/h (1 Bft) O 0,67 h 0,1 mm 0,5 UV-I 104 W/m 8,9 C 8,0 km/h (2 Bft)
13.10.2021 18:00 12,2 C 80 % 1026,1 hPa 0,0 mm 5,0 km/h (1 Bft) O 0,08 h 0,1 mm 0,0 UV-I 18 W/m 8,8 C 10,6 km/h (2 Bft)
13.10.2021 19:00 11,4 C 83 % 1026,2 hPa 0,0 mm 3,8 km/h (1 Bft) O 0,00 h 0,0 mm 0,0 UV-I 0 W/m 8,6 C 7,4 km/h (2 Bft)
13.10.2021 20:00 10,9 C 85 % 1026,6 hPa 0,0 mm 3,6 km/h (1 Bft) O 0,00 h 0,0 mm 0,0 UV-I 0 W/m 8,5 C 6,7 km/h (2 Bft)
13.10.2021 21:00 10,9 C 85 % 1026,8 hPa 0,0 mm 3,6 km/h (1 Bft) O 0,00 h 0,0 mm 0,0 UV-I 0 W/m 8,5 C 7,6 km/h (2 Bft)
13.10.2021 22:00 10,8 C 86 % 1026,9 hPa 0,0 mm 3,3 km/h (1 Bft) O 0,00 h 0,0 mm 0,0 UV-I 0 W/m 8,6 C 6,9 km/h (2 Bft)
13.10.2021 23:00 10,7 C 88 % 1027,1 hPa 0,0 mm 2,8 km/h (1 Bft) O 0,00 h 0,0 mm 0,0 UV-I 0 W/m 8,7 C 5,9 km/h (2 Bft)
14.10.2021 00:00 10,6 C 88 % 1026,9 hPa 0,0 mm 3,0 km/h (1 Bft) O 0,00 h 0,0 mm 0,0 UV-I 0 W/m 8,7 C 7,2 km/h (2 Bft)
14.10.2021 01:00 10,5 C 88 % 1026,8 hPa 0,0 mm 2,7 km/h (1 Bft) O 0,00 h 0,0 mm 0,0 UV-I 0 W/m 8,5 C 6,9 km/h (2 Bft)
14.10.2021 02:00 10,5 C 87 % 1026,6 hPa 0,0 mm 3,0 km/h (1 Bft) O 0,00 h 0,0 mm 0,0 UV-I 0 W/m 8,4 C 8,3 km/h (2 Bft)
14.10.2021 03:00 10,7 C 85 % 1026,2 hPa 0,0 mm 3,2 km/h (1 Bft) O 0,00 h 0,0 mm 0,0 UV-I 0 W/m 8,3 C 8,7 km/h (2 Bft)
14.10.2021 04:00 10,7 C 84 % 1025,9 hPa 0,0 mm 4,8 km/h (1 Bft) O 0,00 h 0,0 mm 0,0 UV-I 0 W/m 8,2 C 11,1 km/h (2 Bft)
14.10.2021 05:00 10,6 C 84 % 1025,7 hPa 0,0 mm 9,3 km/h (2 Bft) O 0,00 h 0,0 mm 0,0 UV-I 0 W/m 7,9 C 19,4 km/h (3 Bft)
14.10.2021 06:00 10,4 C 85 % 1025,6 hPa 0,0 mm 8,8 km/h (2 Bft) O 0,00 h 0,0 mm 0,0 UV-I 0 W/m 7,9 C 16,5 km/h (3 Bft)
14.10.2021 07:00 10,4 C 85 % 1025,4 hPa 0,0 mm 8,1 km/h (2 Bft) O 0,00 h 0,0 mm 0,0 UV-I 0 W/m 7,9 C 17,8 km/h (3 Bft)
14.10.2021 08:00 10,4 C 85 % 1025,4 hPa 0,0 mm 9,2 km/h (2 Bft) O 0,00 h 0,0 mm 0,0 UV-I 14 W/m 8,0 C 20,0 km/h (4 Bft)
14.10.2021 09:00 10,4 C 88 % 1025,4 hPa 0,0 mm 9,4 km/h (2 Bft) O 0,00 h 0,0 mm 0,0 UV-I 44 W/m 8,4 C 21,1 km/h (4 Bft)
14.10.2021 10:00 10,9 C 88 % 1025,5 hPa 0,0 mm 9,6 km/h (2 Bft) O 0,00 h 0,0 mm 0,6 UV-I 82 W/m 9,0 C 20,4 km/h (4 Bft)
14.10.2021 11:00 11,3 C 89 % 1025,5 hPa 0,0 mm 9,7 km/h (2 Bft) O 0,00 h 0,1 mm 0,8 UV-I 117 W/m 9,5 C 19,4 km/h (3 Bft)
14.10.2021 12:00 12,4 C 87 % 1025,3 hPa 0,0 mm 9,7 km/h (2 Bft) O 0,00 h 0,1 mm 1,5 UV-I 196 W/m 10,2 C 20,6 km/h (4 Bft)
14.10.2021 13:00 13,1 C 82 % 1024,9 hPa 0,0 mm 9,6 km/h (2 Bft) O 0,00 h 0,1 mm 1,0 UV-I 118 W/m 10,2 C 18,9 km/h (3 Bft)
14.10.2021 14:00 14,0 C 81 % 1024,2 hPa 0,0 mm 8,7 km/h (2 Bft) O 0,17 h 0,1 mm 1,7 UV-I 235 W/m 10,7 C 18,9 km/h (3 Bft)
14.10.2021 15:00 15,3 C 76 % 1023,6 hPa 0,0 mm 8,6 km/h (2 Bft) O 0,67 h 0,1 mm 1,5 UV-I 297 W/m 11,1 C 20,0 km/h (4 Bft)
14.10.2021 16:00 15,1 C 77 % 1023,0 hPa 0,0 mm 8,3 km/h (2 Bft) O 0,00 h 0,1 mm 0,6 UV-I 79 W/m 11,1 C 16,8 km/h (3 Bft)
14.10.2021 17:00 14,6 C 79 % 1022,6 hPa 0,0 mm 7,9 km/h (2 Bft) O 0,00 h 0,1 mm 0,0 UV-I 33 W/m 10,9 C 16,3 km/h (3 Bft)
14.10.2021 18:00 14,1 C 79 % 1022,2 hPa 0,0 mm 5,8 km/h (2 Bft) O 0,00 h 0,0 mm 0,0 UV-I 12 W/m 10,6 C 12,8 km/h (3 Bft)
14.10.2021 19:00 13,7 C 81 % 1022,1 hPa 0,0 mm 2,9 km/h (1 Bft) O 0,00 h 0,0 mm 0,0 UV-I 0 W/m 10,6 C 7,0 km/h (2 Bft)
14.10.2021 20:00 13,4 C 82 % 1021,8 hPa 0,0 mm 2,2 km/h (1 Bft) O 0,00 h 0,0 mm 0,0 UV-I 0 W/m 10,4 C 5,5 km/h (1 Bft)
14.10.2021 21:00 13,0 C 82 % 1021,4 hPa 0,0 mm 2,3 km/h (1 Bft) O 0,00 h 0,0 mm 0,0 UV-I 0 W/m 10,0 C 6,1 km/h (2 Bft)
14.10.2021 22:00 12,9 C 81 % 1021,1 hPa 0,0 mm 1,7 km/h (1 Bft) O 0,00 h 0,0 mm 0,0 UV-I 0 W/m 9,8 C 5,5 km/h (1 Bft)
14.10.2021 23:00 13,0 C 81 % 1020,6 hPa 0,0 mm 4,7 km/h (1 Bft) O 0,00 h 0,0 mm 0,0 UV-I 0 W/m 9,8 C 11,4 km/h (2 Bft)
15.10.2021 00:00 12,9 C 76 % 1019,9 hPa 0,0 mm 7,4 km/h (2 Bft) O 0,00 h 0,0 mm 0,0 UV-I 0 W/m 8,8 C 16,5 km/h (3 Bft)
15.10.2021 01:00 12,2 C 76 % 1019,3 hPa 0,0 mm 5,2 km/h (1 Bft) O 0,00 h 0,0 mm 0,0 UV-I 0 W/m 8,1 C 12,0 km/h (2 Bft)
15.10.2021 02:00 11,2 C 78 % 1018,8 hPa 0,0 mm 6,3 km/h (2 Bft) O 0,00 h 0,0 mm 0,0 UV-I 0 W/m 7,5 C 13,3 km/h (3 Bft)
15.10.2021 03:00 10,3 C 80 % 1018,1 hPa 0,0 mm 3,3 km/h (1 Bft) O 0,00 h 0,0 mm 0,0 UV-I 0 W/m 7,1 C 7,4 km/h (2 Bft)
15.10.2021 04:00 9,7 C 82 % 1017,4 hPa 0,0 mm 3,4 km/h (1 Bft) O 0,00 h 0,0 mm 0,0 UV-I 0 W/m 6,8 C 7,2 km/h (2 Bft)
15.10.2021 05:00 9,4 C 84 % 1016,9 hPa 0,0 mm 2,9 km/h (1 Bft) O 0,00 h 0,0 mm 0,0 UV-I 0 W/m 6,8 C 6,7 km/h (2 Bft)
15.10.2021 06:00 9,7 C 84 % 1016,4 hPa 0,0 mm 2,7 km/h (1 Bft) O 0,00 h 0,0 mm 0,0 UV-I 0 W/m 7,1 C 6,1 km/h (2 Bft)
15.10.2021 07:00 10,2 C 83 % 1016,2 hPa 0,0 mm 2,9 km/h (1 Bft) O 0,00 h 0,0 mm 0,0 UV-I 0 W/m 7,4 C 7,1 km/h (2 Bft)
15.10.2021 08:00 10,6 C 82 % 1016,0 hPa 0,0 mm 5,2 km/h (1 Bft) O 0,00 h 0,0 mm 0,0 UV-I 12 W/m 7,7 C 11,8 km/h (2 Bft)
15.10.2021 09:00 11,6 C 80 % 1015,9 hPa 0,0 mm 9,4 km/h (2 Bft) O 0,00 h 0,0 mm 0,0 UV-I 49 W/m 8,3 C 19,6 km/h (3 Bft)
15.10.2021 10:00 12,3 C 81 % 1016,1 hPa 0,0 mm 9,0 km/h (2 Bft) O 0,00 h 0,0 mm 0,5 UV-I 90 W/m 9,1 C 19,3 km/h (3 Bft)
15.10.2021 11:00 12,9 C 83 % 1016,4 hPa 0,3 mm 9,4 km/h (2 Bft) O 0,00 h 0,1 mm 0,5 UV-I 89 W/m 10,0 C 22,8 km/h (4 Bft)
15.10.2021 12:00 12,4 C 88 % 1017,2 hPa 0,3 mm 5,9 km/h (2 Bft) O 0,00 h 0,1 mm 0,6 UV-I 120 W/m 10,6 C 17,2 km/h (3 Bft)
15.10.2021 13:00 12,1 C 88 % 1017,8 hPa 0,0 mm 1,6 km/h (1 Bft) O 0,00 h 0,1 mm 0,7 UV-I 125 W/m 10,2 C 6,6 km/h (2 Bft)
15.10.2021 14:00 12,5 C 85 % 1018,1 hPa 0,0 mm 0,3 km/h (0 Bft) N 0,67 h 0,1 mm 1,3 UV-I 345 W/m 10,0 C 2,0 km/h (1 Bft)
15.10.2021 15:00 13,7 C 74 % 1018,5 hPa 0,0 mm 0,6 km/h (0 Bft) N 0,92 h 0,2 mm 0,9 UV-I 408 W/m 9,1 C 3,5 km/h (1 Bft)
15.10.2021 16:00 14,0 C 70 % 1018,8 hPa 0,0 mm 0,7 km/h (0 Bft) NW 0,83 h 0,2 mm 0,4 UV-I 319 W/m 8,6 C 3,7 km/h (1 Bft)
15.10.2021 17:00 12,9 C 77 % 1018,8 hPa 0,0 mm 2,3 km/h (1 Bft) O 0,00 h 0,1 mm 0,0 UV-I 39 W/m 8,9 C 4,5 km/h (1 Bft)
15.10.2021 18:00 11,8 C 82 % 1019,2 hPa 0,0 mm 0,8 km/h (0 Bft) O 0,00 h 0,0 mm 0,0 UV-I 15 W/m 8,8 C 2,4 km/h (1 Bft)
15.10.2021 19:00 10,9 C 82 % 1020,1 hPa 0,0 mm 0,1 km/h (0 Bft) N 0,00 h 0,0 mm 0,0 UV-I 0 W/m 8,1 C 0,6 km/h (0 Bft)
15.10.2021 20:00 10,3 C 84 % 1020,6 hPa 0,0 mm 0,0 km/h (0 Bft) N 0,00 h 0,0 mm 0,0 UV-I 0 W/m 7,8 C 0,0 km/h (0 Bft)
15.10.2021 21:00 10,0 C 84 % 1021,0 hPa 0,0 mm 0,0 km/h (0 Bft) N 0,00 h 0,0 mm 0,0 UV-I 0 W/m 7,4 C 0,0 km/h (0 Bft)
15.10.2021 22:00 8,4 C 85 % 1021,4 hPa 0,0 mm 0,0 km/h (0 Bft) N 0,00 h 0,0 mm 0,0 UV-I 0 W/m 6,1 C 0,7 km/h (0 Bft)
15.10.2021 23:00 7,1 C 87 % 1021,7 hPa 0,0 mm 0,1 km/h (0 Bft) N 0,00 h 0,0 mm 0,0 UV-I 0 W/m 5,2 C 0,4 km/h (0 Bft)
16.10.2021 00:00 6,6 C 89 % 1022,0 hPa 0,0 mm 0,2 km/h (0 Bft) O 0,00 h 0,0 mm 0,0 UV-I 0 W/m 4,8 C 0,6 km/h (0 Bft)
16.10.2021 01:00 6,3 C 89 % 1022,0 hPa 0,0 mm 1,1 km/h (1 Bft) O 0,00 h 0,0 mm 0,0 UV-I 0 W/m 4,6 C 3,1 km/h (1 Bft)
16.10.2021 02:00 5,9 C 89 % 1022,0 hPa 0,0 mm 0,5 km/h (0 Bft) O 0,00 h 0,0 mm 0,0 UV-I 0 W/m 4,2 C 1,3 km/h (1 Bft)
16.10.2021 03:00 5,2 C 89 % 1021,9 hPa 0,0 mm 0,6 km/h (0 Bft) O 0,00 h 0,0 mm 0,0 UV-I 0 W/m 3,5 C 1,7 km/h (1 Bft)
16.10.2021 04:00 4,9 C 90 % 1021,9 hPa 0,0 mm 0,0 km/h (0 Bft) N 0,00 h 0,0 mm 0,0 UV-I 0 W/m 3,4 C 0,2 km/h (0 Bft)
16.10.2021 05:00 4,4 C 90 % 1022,0 hPa 0,0 mm 0,0 km/h (0 Bft) N 0,00 h 0,0 mm 0,0 UV-I 0 W/m 2,9 C 0,0 km/h (0 Bft)
16.10.2021 06:00 3,9 C 90 % 1022,2 hPa 0,0 mm 0,0 km/h (0 Bft) N 0,00 h 0,0 mm 0,0 UV-I 0 W/m 2,4 C 0,6 km/h (0 Bft)
16.10.2021 07:00 3,7 C 91 % 1022,3 hPa 0,0 mm 0,2 km/h (0 Bft) O 0,00 h 0,0 mm 0,0 UV-I 0 W/m 2,4 C 1,7 km/h (1 Bft)
16.10.2021 08:00 3,5 C 91 % 1022,7 hPa 0,0 mm 0,4 km/h (0 Bft) O 0,00 h 0,0 mm 0,0 UV-I 21 W/m 2,2 C 4,2 km/h (1 Bft)
16.10.2021 09:00 4,3 C 93 % 1023,1 hPa 0,0 mm 0,9 km/h (0 Bft) O 0,00 h 0,0 mm 0,0 UV-I 69 W/m 3,3 C 5,6 km/h (1 Bft)
16.10.2021 10:00 5,6 C 93 % 1023,4 hPa 0,0 mm 0,6 km/h (0 Bft) O 0,00 h 0,0 mm 0,6 UV-I 116 W/m 4,5 C 5,4 km/h (1 Bft)
16.10.2021 11:00 6,6 C 93 % 1023,3 hPa 0,0 mm 1,0 km/h (0 Bft) O 0,00 h 0,1 mm 1,0 UV-I 170 W/m 5,6 C 5,2 km/h (1 Bft)
16.10.2021 12:00 7,6 C 93 % 1023,4 hPa 0,0 mm 1,5 km/h (1 Bft) O 0,33 h 0,1 mm 1,5 UV-I 288 W/m 6,6 C 5,6 km/h (1 Bft)
16.10.2021 13:00 10,1 C 88 % 1022,8 hPa 0,0 mm 1,9 km/h (1 Bft) O 1,00 h 0,1 mm 2,4 UV-I 583 W/m 8,1 C 5,5 km/h (1 Bft)
16.10.2021 14:00 13,3 C 68 % 1022,2 hPa 0,0 mm 1,6 km/h (1 Bft) S 1,00 h 0,2 mm 1,1 UV-I 557 W/m 7,6 C 5,9 km/h (2 Bft)
16.10.2021 15:00 13,6 C 62 % 1021,9 hPa 0,0 mm 0,6 km/h (0 Bft) N 1,00 h 0,3 mm 0,5 UV-I 459 W/m 6,4 C 2,8 km/h (1 Bft)
16.10.2021 16:00 12,5 C 60 % 1021,5 hPa 0,0 mm 0,0 km/h (0 Bft) N 0,08 h 0,2 mm 0,0 UV-I 125 W/m 5,0 C 0,6 km/h (0 Bft)
16.10.2021 17:00 12,0 C 64 % 1021,4 hPa 0,0 mm 0,0 km/h (0 Bft) N 0,00 h 0,1 mm 0,0 UV-I 63 W/m 5,5 C 0,0 km/h (0 Bft)
16.10.2021 18:00 11,3 C 72 % 1021,5 hPa 0,0 mm 0,0 km/h (0 Bft) N 0,00 h 0,0 mm 0,0 UV-I 11 W/m 6,4 C 0,0 km/h (0 Bft)
16.10.2021 19:00 10,3 C 77 % 1021,3 hPa 0,0 mm 0,6 km/h (0 Bft) O 0,00 h 0,0 mm 0,0 UV-I 0 W/m 6,4 C 1,9 km/h (1 Bft)
16.10.2021 20:00 9,1 C 80 % 1021,5 hPa 0,0 mm 0,4 km/h (0 Bft) O 0,00 h 0,0 mm 0,0 UV-I 0 W/m 5,8 C 1,3 km/h (1 Bft)
16.10.2021 21:00 7,5 C 84 % 1021,6 hPa 0,0 mm 0,0 km/h (0 Bft) N 0,00 h 0,0 mm 0,0 UV-I 0 W/m 4,9 C 0,0 km/h (0 Bft)
16.10.2021 22:00 6,6 C 86 % 1021,5 hPa 0,0 mm 0,5 km/h (0 Bft) O 0,00 h 0,0 mm 0,0 UV-I 0 W/m 4,5 C 1,5 km/h (1 Bft)
16.10.2021 23:00 6,1 C 87 % 1021,5 hPa 0,0 mm 0,1 km/h (0 Bft) N 0,00 h 0,0 mm 0,0 UV-I 0 W/m 4,1 C 0,6 km/h (0 Bft)
17.10.2021 00:00 5,2 C 88 % 1021,3 hPa 0,0 mm 0,0 km/h (0 Bft) N 0,00 h 0,0 mm 0,0 UV-I 0 W/m 3,4 C 0,0 km/h (0 Bft)
17.10.2021 01:00 4,9 C 89 % 1021,3 hPa 0,0 mm 0,4 km/h (0 Bft) O 0,00 h 0,0 mm 0,0 UV-I 0 W/m 3,2 C 2,4 km/h (1 Bft)
17.10.2021 02:00 5,0 C 89 % 1021,2 hPa 0,0 mm 0,3 km/h (0 Bft) O 0,00 h 0,0 mm 0,0 UV-I 0 W/m 3,4 C 1,8 km/h (1 Bft)
17.10.2021 03:00 4,7 C 89 % 1021,1 hPa 0,0 mm 0,1 km/h (0 Bft) N 0,00 h 0,0 mm 0,0 UV-I 0 W/m 3,1 C 0,7 km/h (0 Bft)
17.10.2021 04:00 3,9 C 90 % 1021,0 hPa 0,0 mm 0,0 km/h (0 Bft) N 0,00 h 0,0 mm 0,0 UV-I 0 W/m 2,4 C 0,0 km/h (0 Bft)
17.10.2021 05:00 3,7 C 90 % 1020,8 hPa 0,0 mm 0,4 km/h (0 Bft) O 0,00 h 0,0 mm 0,0 UV-I 0 W/m 2,3 C 2,4 km/h (1 Bft)
17.10.2021 06:00 4,2 C 91 % 1020,5 hPa 0,0 mm 1,3 km/h (1 Bft) O 0,00 h 0,0 mm 0,0 UV-I 0 W/m 2,8 C 5,2 km/h (1 Bft)
17.10.2021 07:00 4,1 C 91 % 1020,8 hPa 0,0 mm 0,3 km/h (0 Bft) O 0,00 h 0,0 mm 0,0 UV-I 0 W/m 2,7 C 2,2 km/h (1 Bft)
17.10.2021 08:00 4,1 C 91 % 1021,1 hPa 0,0 mm 0,3 km/h (0 Bft) O 0,00 h 0,0 mm 0,0 UV-I 24 W/m 2,7 C 3,7 km/h (1 Bft)
17.10.2021 09:00 5,0 C 92 % 1021,3 hPa 0,0 mm 3,1 km/h (1 Bft) O 0,75 h 0,0 mm 0,0 UV-I 144 W/m 3,9 C 8,9 km/h (2 Bft)
17.10.2021 10:00 6,8 C 91 % 1021,5 hPa 0,0 mm 3,2 km/h (1 Bft) O 1,00 h 0,1 mm 0,9 UV-I 340 W/m 5,4 C 9,3 km/h (2 Bft)
17.10.2021 11:00 9,2 C 87 % 1021,5 hPa 0,0 mm 1,8 km/h (1 Bft) O 1,00 h 0,1 mm 1,3 UV-I 431 W/m 7,2 C 5,7 km/h (1 Bft)
17.10.2021 12:00 12,1 C 76 % 1021,2 hPa 0,0 mm 2,1 km/h (1 Bft) O 1,00 h 0,2 mm 1,3 UV-I 495 W/m 7,9 C 5,9 km/h (2 Bft)
17.10.2021 13:00 13,9 C 66 % 1021,0 hPa 0,0 mm 2,3 km/h (1 Bft) O 1,00 h 0,2 mm 1,0 UV-I 404 W/m 7,6 C 6,7 km/h (2 Bft)
17.10.2021 14:00 15,0 C 58 % 1020,7 hPa 0,0 mm 3,0 km/h (1 Bft) O 1,00 h 0,2 mm 0,8 UV-I 361 W/m 6,8 C 7,8 km/h (2 Bft)
17.10.2021 15:00 15,1 C 53 % 1020,2 hPa 0,0 mm 4,0 km/h (1 Bft) O 1,00 h 0,2 mm 0,5 UV-I 306 W/m 5,6 C 10,0 km/h (2 Bft)
17.10.2021 16:00 14,7 C 52 % 1020,3 hPa 0,0 mm 3,1 km/h (1 Bft) O 1,00 h 0,2 mm 0,0 UV-I 207 W/m 5,1 C 7,8 km/h (2 Bft)
17.10.2021 17:00 14,1 C 57 % 1020,4 hPa 0,0 mm 1,3 km/h (1 Bft) O 0,17 h 0,1 mm 0,0 UV-I 69 W/m 5,8 C 4,2 km/h (1 Bft)
17.10.2021 18:00 12,9 C 66 % 1020,5 hPa 0,0 mm 0,9 km/h (0 Bft) O 0,00 h 0,0 mm 0,0 UV-I 14 W/m 6,7 C 3,3 km/h (1 Bft)
17.10.2021 19:00 11,3 C 75 % 1020,9 hPa 0,0 mm 0,1 km/h (0 Bft) N 0,00 h 0,0 mm 0,0 UV-I 0 W/m 7,0 C 0,4 km/h (0 Bft)
17.10.2021 20:00 10,4 C 80 % 1021,2 hPa 0,0 mm 0,1 km/h (0 Bft) N 0,00 h 0,0 mm 0,0 UV-I 0 W/m 7,2 C 0,4 km/h (0 Bft)
17.10.2021 21:00 9,9 C 82 % 1021,6 hPa 0,0 mm 0,1 km/h (0 Bft) N 0,00 h 0,0 mm 0,0 UV-I 0 W/m 6,9 C 0,4 km/h (0 Bft)
17.10.2021 22:00 9,4 C 83 % 1021,9 hPa 0,0 mm 0,9 km/h (0 Bft) O 0,00 h 0,0 mm 0,0 UV-I 0 W/m 6,6 C 3,1 km/h (1 Bft)
17.10.2021 23:00 9,1 C 83 % 1022,1 hPa 0,0 mm 1,7 km/h (1 Bft) O 0,00 h 0,0 mm 0,0 UV-I 0 W/m 6,3 C 5,4 km/h (1 Bft)
Min-Datum _ 16.10.21 17.10.21 15.10.21 - 11.10.21 - - - - - 16.10.21 11.10.21
_ Min-Zeit 08:25 14:50 09:00 - 01:10 - - - - - 08:25 01:25
Minimum _ 3,3 C 52 % 1015,8 hPa - 0,0 km/h (0 Bft) - - - - - 2,0 C 0,0 km/h (0 Bft)
Max-Datum _ 11.10.21 11.10.21 13.10.21 12.10.21 12.10.21 - 11.10.21 16.10.21 16.10.21 13.10.21 12.10.21 12.10.21
_ Max-Zeit 15:10 08:15 22:50 11:50 11:15 - 09:40 15:00 13:20 12:45 15:30 10:35
Maximum _ 15,7 C 93 % 1027,1 hPa 2,3 mm 18,0 km/h
O (3 Bft)
- 0,08 h 0,3 mm 3,0 UV-I 665 W/m 11,5 C 35,5 km/h
O (5 Bft)
Durchschnitt _ 10,1 C 84 % 1022,5 hPa #6,9 mm 2,8 km/h (1 Bft) O #25:15 h #6,122 mm 0,9 UV-I 175 W/m 7,5 C 7,2 km/h (2 Bft)



© 1998 - 2021 www.pulheimwetter.de